Time,TemperatureF,DewpointF,PressureIn,WindDirection,WindDirectionDegrees,WindSpeedMPH,WindSpeedGustMPH,Humidity,HourlyPrecipIn,Conditions,Clouds,dailyrainin,SoftwareType,DateUTC
2013-05-03 00:15:00,61.7,38.0,30.04,SSW,207,0.0,2.0,41,0.00,,,0.00,weatherlink.com 1.10,2013-05-03 07:15:00,
2013-05-03 00:30:00,61.3,37.0,30.03,SSW,207,0.0,2.0,41,0.00,,,0.00,weatherlink.com 1.10,2013-05-03 07:30:00,
2013-05-03 00:45:00,61.2,38.0,30.04,SSW,207,0.0,1.0,42,0.00,,,0.00,weatherlink.com 1.10,2013-05-03 07:45:00,
2013-05-03 01:00:00,61.9,38.0,30.04,South,175,1.0,1.0,41,0.00,,,0.00,weatherlink.com 1.10,2013-05-03 08:00:00,
2013-05-03 01:15:00,61.9,40.0,30.04,East,90,2.0,3.0,44,0.00,,,0.00,weatherlink.com 1.10,2013-05-03 08:15:00,
2013-05-03 01:30:00,61.0,40.0,30.03,East,82,2.0,3.0,47,0.00,,,0.00,weatherlink.com 1.10,2013-05-03 08:30:00,
2013-05-03 01:45:00,60.3,40.0,30.03,East,91,0.0,2.0,48,0.00,,,0.00,weatherlink.com 1.10,2013-05-03 08:45:00,
2013-05-03 02:00:00,59.6,41.0,30.03,East,91,0.0,1.0,51,0.00,,,0.00,weatherlink.com 1.10,2013-05-03 09:00:00,
2013-05-03 02:15:00,58.0,42.0,30.03,South,179,0.0,1.0,56,0.00,,,0.00,weatherlink.com 1.10,2013-05-03 09:15:00,
2013-05-03 02:30:00,57.0,42.0,30.02,South,179,0.0,2.0,58,0.00,,,0.00,weatherlink.com 1.10,2013-05-03 09:30:00,
2013-05-03 02:45:00,57.1,41.0,30.02,South,179,0.0,1.0,56,0.00,,,0.00,weatherlink.com 1.10,2013-05-03 09:45:00,
2013-05-03 03:00:00,56.5,41.0,30.01,South,174,0.0,2.0,56,0.00,,,0.00,weatherlink.com 1.10,2013-05-03 10:00:00,
2013-05-03 03:15:00,56.2,42.0,30.01,South,174,0.0,1.0,59,0.00,,,0.00,weatherlink.com 1.10,2013-05-03 10:15:00,
2013-05-03 03:30:00,55.6,42.0,30.01,South,174,0.0,0.0,61,0.00,,,0.00,weatherlink.com 1.10,2013-05-03 10:30:00,
2013-05-03 03:45:00,54.7,43.0,30.01,South,174,1.0,2.0,64,0.00,,,0.00,weatherlink.com 1.10,2013-05-03 10:45:00,
2013-05-03 04:00:00,54.1,42.0,30.01,South,174,0.0,1.0,65,0.00,,,0.00,weatherlink.com 1.10,2013-05-03 11:00:00,
2013-05-03 04:15:00,53.7,42.0,30.01,South,174,0.0,0.0,66,0.00,,,0.00,weatherlink.com 1.10,2013-05-03 11:15:00,
2013-05-03 04:30:00,54.4,44.0,30.00,South,174,0.0,2.0,68,0.00,,,0.00,weatherlink.com 1.10,2013-05-03 11:30:00,
2013-05-03 04:45:00,55.7,44.0,30.00,SSE,153,1.0,2.0,65,0.00,,,0.00,weatherlink.com 1.10,2013-05-03 11:45:00,
2013-05-03 05:00:00,56.8,45.0,30.00,ESE,113,0.0,2.0,64,0.00,,,0.00,weatherlink.com 1.10,2013-05-03 12:00:00,
2013-05-03 05:15:00,56.7,46.0,29.99,ESE,113,0.0,0.0,67,0.00,,,0.00,weatherlink.com 1.10,2013-05-03 12:15:00,
2013-05-03 05:30:00,54.2,44.0,30.00,SE,138,0.0,2.0,69,0.00,,,0.00,weatherlink.com 1.10,2013-05-03 12:30:00,
2013-05-03 05:45:00,52.2,42.0,30.00,West,263,0.0,2.0,69,0.00,,,0.00,weatherlink.com 1.10,2013-05-03 12:45:00,
2013-05-03 06:01:00,51.1,42.0,30.00,West,263,0.0,0.0,71,0.00,,,0.00,weatherlink.com 1.10,2013-05-03 13:01:00,
2013-05-03 06:16:00,51.2,43.0,30.00,West,263,0.0,1.0,73,0.00,,,0.00,weatherlink.com 1.10,2013-05-03 13:16:00,
2013-05-03 06:31:00,51.0,42.0,30.00,West,263,1.0,2.0,72,0.00,,,0.00,weatherlink.com 1.10,2013-05-03 13:31:00,
2013-05-03 06:46:00,54.0,45.0,30.00,East,92,1.0,3.0,71,0.00,,,0.00,weatherlink.com 1.10,2013-05-03 13:46:00,
2013-05-03 07:01:00,57.6,47.0,30.00,East,94,0.0,4.0,67,0.00,,,0.00,weatherlink.com 1.10,2013-05-03 14:01:00,
2013-05-03 07:16:00,58.0,47.0,30.00,West,279,2.0,4.0,67,0.00,,,0.00,weatherlink.com 1.10,2013-05-03 14:16:00,
2013-05-03 07:31:00,57.9,48.0,30.00,West,263,0.0,3.0,69,0.00,,,0.00,weatherlink.com 1.10,2013-05-03 14:31:00,
2013-05-03 07:46:00,59.3,46.0,30.01,West,263,0.0,2.0,62,0.00,,,0.00,weatherlink.com 1.10,2013-05-03 14:46:00,
2013-05-03 08:01:00,60.9,47.0,30.01,WNW,286,3.0,5.0,60,0.00,,,0.00,weatherlink.com 1.10,2013-05-03 15:01:00,
2013-05-03 08:16:00,62.0,44.0,30.01,WNW,303,2.0,4.0,53,0.00,,,0.00,weatherlink.com 1.10,2013-05-03 15:16:00,
2013-05-03 08:31:00,63.8,47.0,30.00,NW,315,1.0,5.0,54,0.00,,,0.00,weatherlink.com 1.10,2013-05-03 15:31:00,
2013-05-03 08:46:00,66.1,48.0,30.00,NNW,343,3.0,4.0,52,0.00,,,0.00,weatherlink.com 1.10,2013-05-03 15:46:00,
2013-05-03 09:01:00,68.2,46.0,29.99,NW,309,2.0,5.0,46,0.00,,,0.00,weatherlink.com 1.10,2013-05-03 16:01:00,
2013-05-03 09:16:00,70.2,45.0,29.99,NNW,332,5.0,8.0,41,0.00,,,0.00,weatherlink.com 1.10,2013-05-03 16:16:00,
2013-05-03 09:31:00,71.2,47.0,29.99,NNW,329,6.0,8.0,43,0.00,,,0.00,weatherlink.com 1.10,2013-05-03 16:31:00,
2013-05-03 09:46:00,72.7,48.0,29.98,North,5,4.0,7.0,41,0.00,,,0.00,weatherlink.com 1.10,2013-05-03 16:46:00,
2013-05-03 10:01:00,74.6,46.0,29.97,NW,323,3.0,9.0,36,0.00,,,0.00,weatherlink.com 1.10,2013-05-03 17:01:00,
2013-05-03 10:17:00,76.3,44.0,29.97,North,5,2.0,7.0,32,0.00,,,0.00,weatherlink.com 1.10,2013-05-03 17:17:00,
2013-05-03 10:32:00,77.5,44.0,29.96,NNW,330,5.0,7.0,30,0.00,,,0.00,weatherlink.com 1.10,2013-05-03 17:32:00,
2013-05-03 10:47:00,78.7,45.0,29.96,NW,306,6.0,8.0,30,0.00,,,0.00,weatherlink.com 1.10,2013-05-03 17:47:00,
2013-05-03 11:02:00,79.2,45.0,29.96,NW,326,5.0,8.0,30,0.00,,,0.00,weatherlink.com 1.10,2013-05-03 18:02:00,
2013-05-03 11:17:00,81.1,45.0,29.95,NNE,19,2.0,11.0,28,0.00,,,0.00,weatherlink.com 1.10,2013-05-03 18:17:00,
2013-05-03 11:32:00,82.3,44.0,29.95,NW,323,6.0,7.0,26,0.00,,,0.00,weatherlink.com 1.10,2013-05-03 18:32:00,
2013-05-03 11:47:00,83.5,45.0,29.94,NNE,17,4.0,8.0,26,0.00,,,0.00,weatherlink.com 1.10,2013-05-03 18:47:00,
2013-05-03 12:02:00,85.1,46.0,29.93,North,355,4.0,14.0,25,0.00,,,0.00,weatherlink.com 1.10,2013-05-03 19:02:00,
2013-05-03 12:17:00,85.1,46.0,29.93,West,280,4.0,12.0,25,0.00,,,0.00,weatherlink.com 1.10,2013-05-03 19:17:00,
2013-05-03 12:32:00,85.6,48.0,29.92,NW,318,4.0,10.0,27,0.00,,,0.00,weatherlink.com 1.10,2013-05-03 19:32:00,
2013-05-03 12:47:00,86.3,43.0,29.91,NNW,336,5.0,10.0,22,0.00,,,0.00,weatherlink.com 1.10,2013-05-03 19:47:00,
2013-05-03 13:02:00,87.6,45.0,29.91,NW,323,7.0,11.0,23,0.00,,,0.00,weatherlink.com 1.10,2013-05-03 20:02:00,
2013-05-03 13:17:00,87.9,43.0,29.90,NNW,328,7.0,11.0,21,0.00,,,0.00,weatherlink.com 1.10,2013-05-03 20:17:00,
2013-05-03 13:33:00,88.3,42.0,29.89,WNW,297,4.0,9.0,20,0.00,,,0.00,weatherlink.com 1.10,2013-05-03 20:33:00,
2013-05-03 13:47:00,89.1,42.0,29.88,West,263,7.0,10.0,19,0.00,,,0.00,weatherlink.com 1.10,2013-05-03 20:47:00,
2013-05-03 14:03:00,89.6,42.0,29.88,NW,315,3.0,10.0,19,0.00,,,0.00,weatherlink.com 1.10,2013-05-03 21:03:00,
2013-05-03 14:18:00,89.9,44.0,29.87,WNW,291,6.0,10.0,20,0.00,,,0.00,weatherlink.com 1.10,2013-05-03 21:18:00,
2013-05-03 14:33:00,90.2,43.0,29.86,NNW,328,3.0,9.0,19,0.00,,,0.00,weatherlink.com 1.10,2013-05-03 21:33:00,
2013-05-03 14:48:00,90.2,40.0,29.86,WNW,296,5.0,10.0,17,0.00,,,0.00,weatherlink.com 1.10,2013-05-03 21:48:00,
2013-05-03 15:03:00,91.0,37.0,29.84,NNW,338,6.0,11.0,15,0.00,,,0.00,weatherlink.com 1.10,2013-05-03 22:03:00,
2013-05-03 15:18:00,90.9,40.0,29.84,WNW,301,5.0,11.0,17,0.00,,,0.00,weatherlink.com 1.10,2013-05-03 22:18:00,
2013-05-03 15:33:00,91.2,41.0,29.83,West,263,5.0,8.0,17,0.00,,,0.00,weatherlink.com 1.10,2013-05-03 22:33:00,
2013-05-03 15:48:00,91.4,38.0,29.82,WNW,295,3.0,10.0,15,0.00,,,0.00,weatherlink.com 1.10,2013-05-03 22:48:00,
2013-05-03 16:03:00,92.1,38.0,29.82,WNW,303,2.0,9.0,15,0.00,,,0.00,weatherlink.com 1.10,2013-05-03 23:03:00,
2013-05-03 16:18:00,92.0,38.0,29.81,WSW,246,6.0,10.0,15,0.00,,,0.00,weatherlink.com 1.10,2013-05-03 23:18:00,
2013-05-03 16:33:00,92.0,40.0,29.80,NW,323,3.0,9.0,16,0.00,,,0.00,weatherlink.com 1.10,2013-05-03 23:33:00,
2013-05-03 16:48:00,92.3,40.0,29.80,NW,306,6.0,11.0,16,0.00,,,0.00,weatherlink.com 1.10,2013-05-03 23:48:00,
2013-05-03 17:03:00,92.6,40.0,29.79,NW,308,4.0,8.0,16,0.00,,,0.00,weatherlink.com 1.10,2013-05-04 00:03:00,
2013-05-03 17:18:00,92.4,37.0,29.79,WNW,293,3.0,11.0,14,0.00,,,0.00,weatherlink.com 1.10,2013-05-04 00:18:00,
2013-05-03 17:33:00,92.4,40.0,29.79,WNW,294,4.0,8.0,16,0.00,,,0.00,weatherlink.com 1.10,2013-05-04 00:33:00,
2013-05-03 17:48:00,91.9,38.0,29.78,NW,309,2.0,8.0,15,0.00,,,0.00,weatherlink.com 1.10,2013-05-04 00:48:00,
2013-05-03 18:03:00,92.0,41.0,29.78,NNW,336,2.0,6.0,17,0.00,,,0.00,weatherlink.com 1.10,2013-05-04 01:03:00,
2013-05-03 18:18:00,91.8,41.0,29.77,NW,306,1.0,6.0,17,0.00,,,0.00,weatherlink.com 1.10,2013-05-04 01:18:00,
2013-05-03 18:33:00,91.7,44.0,29.77,WNW,288,2.0,3.0,19,0.00,,,0.00,weatherlink.com 1.10,2013-05-04 01:33:00,
2013-05-03 18:48:00,91.5,48.0,29.76,WNW,293,0.0,2.0,22,0.00,,,0.00,weatherlink.com 1.10,2013-05-04 01:48:00,
2013-05-03 19:03:00,90.2,57.0,29.76,WNW,293,0.0,1.0,33,0.00,,,0.00,weatherlink.com 1.10,2013-05-04 02:03:00,
2013-05-03 19:18:00,86.5,54.0,29.76,WNW,293,0.0,1.0,33,0.00,,,0.00,weatherlink.com 1.10,2013-05-04 02:18:00,
2013-05-03 19:33:00,83.8,55.0,29.75,WNW,293,1.0,2.0,37,0.00,,,0.00,weatherlink.com 1.10,2013-05-04 02:33:00,
2013-05-03 19:48:00,79.6,51.0,29.76,SW,222,5.0,6.0,37,0.00,,,0.00,weatherlink.com 1.10,2013-05-04 02:48:00,
2013-05-03 20:03:00,78.0,50.0,29.76,South,185,2.0,4.0,38,0.00,,,0.00,weatherlink.com 1.10,2013-05-04 03:03:00,
2013-05-03 20:18:00,76.5,50.0,29.75,SSW,209,3.0,6.0,39,0.00,,,0.00,weatherlink.com 1.10,2013-05-04 03:18:00,
2013-05-03 20:33:00,75.6,47.0,29.76,SSW,209,3.0,7.0,36,0.00,,,0.00,weatherlink.com 1.10,2013-05-04 03:33:00,
2013-05-03 20:48:00,74.8,44.0,29.76,South,176,4.0,8.0,33,0.00,,,0.00,weatherlink.com 1.10,2013-05-04 03:48:00,
2013-05-03 21:03:00,73.7,43.0,29.76,SSW,193,2.0,6.0,33,0.00,,,0.00,weatherlink.com 1.10,2013-05-04 04:03:00,
2013-05-03 21:18:00,72.6,42.0,29.76,South,185,4.0,7.0,33,0.00,,,0.00,weatherlink.com 1.10,2013-05-04 04:18:00,
2013-05-03 21:34:00,71.5,42.0,29.76,SSW,204,3.0,5.0,34,0.00,,,0.00,weatherlink.com 1.10,2013-05-04 04:34:00,
2013-05-03 21:49:00,70.6,42.0,29.76,SSW,196,4.0,6.0,35,0.00,,,0.00,weatherlink.com 1.10,2013-05-04 04:49:00,
2013-05-03 22:04:00,70.2,41.0,29.76,WSW,237,4.0,6.0,35,0.00,,,0.00,weatherlink.com 1.10,2013-05-04 05:04:00,
2013-05-03 22:19:00,69.7,41.0,29.75,SW,214,2.0,7.0,36,0.00,,,0.00,weatherlink.com 1.10,2013-05-04 05:19:00,
2013-05-03 22:34:00,68.9,41.0,29.75,SW,214,2.0,5.0,37,0.00,,,0.00,weatherlink.com 1.10,2013-05-04 05:34:00,
2013-05-03 22:49:00,68.3,42.0,29.75,SSW,194,2.0,7.0,39,0.00,,,0.00,weatherlink.com 1.10,2013-05-04 05:49:00,
2013-05-03 23:04:00,67.5,43.0,29.74,SW,224,3.0,5.0,41,0.00,,,0.00,weatherlink.com 1.10,2013-05-04 06:04:00,
2013-05-03 23:19:00,66.8,43.0,29.74,SSW,192,0.0,4.0,43,0.00,,,0.00,weatherlink.com 1.10,2013-05-04 06:19:00,
2013-05-03 23:34:00,65.8,43.0,29.74,South,189,0.0,2.0,44,0.00,,,0.00,weatherlink.com 1.10,2013-05-04 06:34:00,
2013-05-03 23:49:00,65.9,44.0,29.74,South,189,0.0,2.0,45,0.00,,,0.00,weatherlink.com 1.10,2013-05-04 06:49:00,